Location: Castro Valley
(37.6940°N, 122.0850°W)
Time: 03:28:13
(UTC-07:00)

Amateur Radio Satellites - All Passes

Search period start: 23 April 2014 02:58
Search period end: 24 April 2014 02:58
Location: Castro Valley, 37.6940°N, 122.0850°W

Satellite Date Start Highest point End Downlink Frequencies (MHz)
Time Altitude Azimuth
Oscar 16 23 Apr 02:59:36 03:04:48 76° 285° (WNW) 03:09:59 437.025 USB, Beacon 2401.1428
Gurwin Techsat 1B 23 Apr 03:01:06 03:04:18 16° 92° (E) 03:07:29 435.225 FM
UOSAT-12 23 Apr 03:21:43 03:25:11 21° 250° (WSW) 03:28:38 437.025 FM, 437.400 FM
Uribyol 2 23 Apr 03:42:09 03:47:14 58° 287° (WNW) 03:52:19 436.500 FM
TMSAT-1 23 Apr 03:45:33 03:50:14 31° 96° (E) 03:54:52 436.925 FM
KITSAT 1 23 Apr 03:56:53 04:04:14 37° 310° (NW) 04:11:38 435.175 FM
AO-Echo 23 Apr 04:00:54 04:05:25 45° 288° (WNW) 04:09:52 ?
Uosat F 23 Apr 04:23:12 04:27:12 24° 95° (E) 04:31:10 435.120 FM
AO-27 23 Apr 04:25:15 04:29:22 24° 294° (WNW) 04:33:27 436.795 MHz FM
Oscar 19 23 Apr 04:32:39 04:34:24 12° 299° (WNW) 04:36:09 437.125 CW, 437.150 USB
ITAMSAT 1 23 Apr 04:35:12 04:38:55 20° 295° (WNW) 04:42:38 435.822 SSB
OPAL 23 Apr 04:35:19 04:37:08 12° 268° (W) 04:38:58 ?
AO-7 23 Apr 04:35:48 04:42:33 27° 96° (E) 04:49:16 29.400 - 29.500 MHz
Gurwin Techsat 1B 23 Apr 04:39:24 04:44:36 57° 287° (WNW) 04:49:46 435.225 FM
JAS-1B 23 Apr 04:44:39 04:50:13 53° 101° (E) 04:56:12 435.800 - 435.900 CW/SSB
RS-15 23 Apr 05:04:02 05:12:36 26° 103° (ESE) 05:20:55 29.354 - 29.394 USB, Beacon 29.352 USB
TMSAT-1 23 Apr 05:25:30 05:30:03 30° 292° (WNW) 05:34:35 436.925 FM
STRAND 1 23 Apr 05:40:23 05:42:53 14° 62° (ENE) 05:45:22 ?
KITSAT 1 23 Apr 06:01:24 06:02:30 10° 337° (NNW) 06:03:37 435.175 FM
Uosat F 23 Apr 06:01:30 06:06:01 35° 290° (WNW) 06:10:31 435.120 FM
Hamsat 23 Apr 06:09:34 06:10:43 11° 90° (E) 06:11:53 145.90 MHz
AO-7 23 Apr 06:27:35 06:35:44 62° 292° (WNW) 06:43:54 29.400 - 29.500 MHz
JAS-1B 23 Apr 06:36:42 06:40:33 19° 296° (WNW) 06:44:32 435.800 - 435.900 CW/SSB
MaSat-1 23 Apr 07:02:40 07:05:48 54° 247° (WSW) 07:09:33 437.345 MHz
JAS-2 23 Apr 07:07:38 07:11:42 20° 95° (E) 07:16:03 435.800 - 435.900 CW/SSB, 435.910 FM
PANSAT 23 Apr 07:09:57 07:12:14 15° 167° (SSE) 07:14:31 not established
RS-15 23 Apr 07:12:24 07:23:47 78° 302° (WNW) 07:34:49 29.354 - 29.394 USB, Beacon 29.352 USB
STRAND 1 23 Apr 07:16:22 07:21:27 69° 258° (WSW) 07:26:34 ?
Hamsat 23 Apr 07:42:45 07:47:02 58° 285° (WNW) 07:51:19 145.90 MHz
SO-67 23 Apr 07:56:26 07:59:35 31° 97° (E) 08:02:43 435.3500 MHz FM
Sapphire 23 Apr 08:03:40 08:06:52 16° 46° (NE) 08:10:03 437.095 MHz 1200 baud AX-25 AFSK
AO-7 23 Apr 08:23:42 08:26:52 13° 312° (NW) 08:30:02 29.400 - 29.500 MHz
PCSat 23 Apr 08:47:00 08:51:58 35° 55° (NE) 08:56:53 145.825 MHz
PANSAT 23 Apr 08:48:55 08:51:52 21° 180° (S) 08:54:48 not established
Oscar 10/S400 23 Apr 08:50:19 10:03:48 71° 199° (SSW) 18:49:40 145.825 - 145.975 CW/USB, Beacon 145.810 USB
JAS-2 23 Apr 08:51:35 08:56:57 52° 287° (WNW) 09:02:56 435.800 - 435.900 CW/SSB, 435.910 FM
RS-15 23 Apr 09:29:33 09:38:11 25° 328° (NNW) 09:46:44 29.354 - 29.394 USB, Beacon 29.352 USB
SO-67 23 Apr 09:30:45 09:32:26 13° 292° (WNW) 09:34:06 435.3500 MHz FM
Sapphire 23 Apr 09:45:31 09:50:57 81° 244° (WSW) 09:56:20 437.095 MHz 1200 baud AX-25 AFSK
KITSAT 1 23 Apr 09:56:43 10:02:32 21° 39° (NE) 10:08:17 435.175 FM
HO-68 23 Apr 10:09:09 10:16:16 60° 102° (ESE) 10:23:19 435.675 MHz FM
Saudisat 1A 23 Apr 10:18:39 10:23:05 75° 119° (ESE) 10:27:34 436.775 MHz
PANSAT 23 Apr 10:29:09 10:31:30 15° 193° (SSW) 10:33:50 not established
PCSat 23 Apr 10:30:35 10:35:15 30° 252° (WSW) 10:39:53 145.825 MHz
Oscar 11 23 Apr 11:07:53 11:12:15 76° 284° (WNW) 11:16:36 145.825 FM, Beacon 2401.500 USB
FUNcube-1 23 Apr 11:10:52 11:14:49 34° 98° (E) 11:18:50 145.950 - 145.970 MHz USB
RS-15 23 Apr 11:50:45 11:56:23 15° 4° (N) 12:02:00 29.354 - 29.394 USB, Beacon 29.352 USB
KITSAT 1 23 Apr 11:51:02 11:59:11 83° 61° (ENE) 12:07:15 435.175 FM
HO-68 23 Apr 11:57:49 12:03:26 26° 299° (WNW) 12:09:03 435.675 MHz FM
Saudisat 1A 23 Apr 12:00:56 12:03:13 14° 317° (NW) 12:05:30 436.775 MHz
Oscar 19 23 Apr 12:30:29 12:32:08 12° 61° (ENE) 12:33:47 437.125 CW, 437.150 USB
Oscar 16 23 Apr 12:38:11 12:41:03 15° 63° (ENE) 12:43:56 437.025 USB, Beacon 2401.1428
ISS 23 Apr 12:41:59 12:43:07 11° 127° (SE) 12:44:15 145.800 FM
FUNcube-1 23 Apr 12:47:57 12:51:00 19° 292° (WNW) 12:54:05 145.950 - 145.970 MHz USB
Uribyol 2 23 Apr 13:20:34 13:24:15 20° 65° (ENE) 13:27:57 436.500 FM
AO-Echo 23 Apr 13:34:23 13:38:08 21° 66° (ENE) 13:41:48 ?
KITSAT 1 23 Apr 13:48:28 13:53:34 18° 258° (WSW) 13:58:39 435.175 FM
SO-50 23 Apr 13:53:49 13:57:11 21° 111° (ESE) 14:00:34 436.795 FM
AO-27 23 Apr 14:01:36 14:06:33 48° 72° (ENE) 14:11:31 436.795 MHz FM
RS-15 23 Apr 14:04:26 14:13:53 32° 39° (NE) 14:23:26 29.354 - 29.394 USB, Beacon 29.352 USB
Oscar 19 23 Apr 14:05:35 14:10:43 83° 257° (WSW) 14:15:55 437.125 CW, 437.150 USB
ITAMSAT 1 23 Apr 14:10:59 14:16:03 58° 73° (ENE) 14:21:07 435.822 SSB
Oscar 16 23 Apr 14:14:46 14:19:51 63° 259° (WSW) 14:24:59 437.025 USB, Beacon 2401.1428
ISS 23 Apr 14:16:07 14:19:25 64° 322° (NW) 14:22:45 145.800 FM
Gurwin Techsat 1B 23 Apr 14:20:16 14:24:17 22° 66° (ENE) 14:28:18 435.225 FM
Uribyol 2 23 Apr 14:58:26 15:03:22 46° 261° (W) 15:08:20 436.500 FM
TMSAT-1 23 Apr 15:04:29 15:09:23 40° 70° (ENE) 15:14:18 436.925 FM
OPAL 23 Apr 15:05:21 15:09:22 22° 96° (E) 15:13:21 ?
AO-Echo 23 Apr 15:11:35 15:16:34 45° 261° (W) 15:21:27 ?
JAS-1B 23 Apr 15:27:15 15:34:30 43° 70° (ENE) 15:40:40 435.800 - 435.900 CW/SSB
AO-7 23 Apr 15:33:01 15:40:04 33° 60° (ENE) 15:47:08 29.400 - 29.500 MHz
SO-50 23 Apr 15:33:21 15:37:30 37° 307° (NW) 15:41:41 436.795 FM
Uosat F 23 Apr 15:34:46 15:38:59 28° 68° (ENE) 15:43:13 435.120 FM
AO-27 23 Apr 15:42:45 15:46:17 18° 267° (W) 15:49:50 436.795 MHz FM
UOSAT-12 23 Apr 15:51:41 15:54:47 18° 109° (ESE) 15:57:56 437.025 FM, 437.400 FM
ITAMSAT 1 23 Apr 15:52:58 15:55:53 15° 268° (W) 15:58:48 435.822 SSB
ISS 23 Apr 15:55:00 15:56:41 13° 340° (NNW) 15:58:22 145.800 FM
Gurwin Techsat 1B 23 Apr 15:58:55 16:03:56 43° 261° (W) 16:08:59 435.225 FM
RS-15 23 Apr 16:16:27 16:27:25 80° 243° (WSW) 16:38:43 29.354 - 29.394 USB, Beacon 29.352 USB
OPAL 23 Apr 16:43:28 16:48:21 42° 292° (WNW) 16:53:13 ?
TMSAT-1 23 Apr 16:45:20 16:49:25 23° 266° (W) 16:53:31 436.925 FM
Uosat F 23 Apr 17:13:16 17:17:40 30° 263° (W) 17:22:05 435.120 FM
JAS-1B 23 Apr 17:18:08 17:25:06 33° 262° (W) 17:31:08 435.800 - 435.900 CW/SSB
AO-7 23 Apr 17:24:25 17:32:27 54° 258° (WSW) 17:40:32 29.400 - 29.500 MHz
UOSAT-12 23 Apr 17:30:13 17:34:34 44° 306° (NW) 17:39:02 437.025 FM, 437.400 FM
AO-40 23 Apr 18:17:57 09:50:55 40° 181° (S) 18:42:13 Beacon 2401.320
RS-15 23 Apr 18:32:09 18:37:58 16° 261° (W) 18:43:54 29.354 - 29.394 USB, Beacon 29.352 USB
Hamsat 23 Apr 18:34:08 18:38:19 78° 77° (ENE) 18:42:35 145.90 MHz
Saudisat 1A 23 Apr 18:47:33 18:51:36 34° 53° (NE) 18:55:36 436.775 MHz
JAS-2 23 Apr 19:02:17 19:07:47 51° 73° (ENE) 19:12:52 435.800 - 435.900 CW/SSB, 435.910 FM
ISS 23 Apr 19:10:49 19:12:39 14° 21° (NNE) 19:14:29 145.800 FM
STRAND 1 23 Apr 19:29:00 19:33:54 46° 100° (E) 19:38:47 ?
SO-67 23 Apr 20:00:56 20:04:18 47° 261° (W) 20:07:42 435.3500 MHz FM
Saudisat 1A 23 Apr 20:27:36 20:30:58 22° 249° (WSW) 20:34:19 436.775 MHz
HO-68 23 Apr 20:35:57 20:42:21 37° 65° (ENE) 20:48:46 435.675 MHz FM
ISS 23 Apr 20:46:31 20:49:52 72° 39° (NE) 20:53:12 145.800 FM
JAS-2 23 Apr 20:49:25 20:53:06 18° 266° (W) 20:56:38 435.800 - 435.900 CW/SSB, 435.910 FM
MaSat-1 23 Apr 21:04:10 21:07:00 56° 295° (WNW) 21:09:33 437.345 MHz
STRAND 1 23 Apr 21:09:09 21:12:44 20° 295° (WNW) 21:16:18 ?
Oscar 11 23 Apr 22:00:57 22:05:13 66° 75° (ENE) 22:09:31 145.825 FM, Beacon 2401.500 USB
FUNcube-1 23 Apr 22:06:33 22:09:46 22° 69° (ENE) 22:12:57 145.950 - 145.970 MHz USB
HO-68 23 Apr 22:23:22 22:29:56 39° 261° (W) 22:36:33 435.675 MHz FM
ISS 23 Apr 22:25:38 22:26:08 10° 233° (SW) 22:26:38 145.800 FM
SO-50 23 Apr 22:27:07 22:29:51 15° 44° (NE) 22:32:35 436.795 FM
Sapphire 23 Apr 22:44:26 22:47:48 17° 104° (ESE) 22:51:10 437.095 MHz 1200 baud AX-25 AFSK
PCSat 23 Apr 23:26:44 23:31:51 46° 111° (ESE) 23:37:00 145.825 MHz
FUNcube-1 23 Apr 23:42:30 23:46:03 27° 264° (W) 23:49:35 145.950 - 145.970 MHz USB
SO-50 24 Apr 00:06:14 00:10:53 71° 242° (WSW) 00:15:35 436.795 FM
UOSAT-12 24 Apr 00:22:59 00:25:15 13° 42° (NE) 00:27:29 437.025 FM, 437.400 FM
Sapphire 24 Apr 00:25:21 00:30:40 59° 300° (WNW) 00:36:02 437.095 MHz 1200 baud AX-25 AFSK
KITSAT 1 24 Apr 00:27:37 00:30:33 12° 99° (E) 00:33:29 435.175 FM
PCSat 24 Apr 01:11:05 01:15:27 25° 309° (NW) 01:19:52 145.825 MHz
UOSAT-12 24 Apr 02:01:19 02:06:03 88° 240° (WSW) 02:10:44 437.025 FM, 437.400 FM
KITSAT 1 24 Apr 02:16:31 02:24:35 76° 115° (ESE) 02:32:43 435.175 FM
AO-27 24 Apr 02:17:24 02:21:08 20° 94° (E) 02:24:51 436.795 MHz FM
OPAL 24 Apr 02:18:22 02:22:48 32° 66° (ENE) 02:27:18 ?
Oscar 19 24 Apr 02:19:20 02:24:14 41° 98° (E) 02:29:06 437.125 CW, 437.150 USB
ITAMSAT 1 24 Apr 02:26:26 02:30:35 24° 95° (E) 02:34:42 435.822 SSB
Oscar 16 24 Apr 02:28:23 02:33:29 54° 100° (E) 02:38:33 437.025 USB, Beacon 2401.1428
